GFSSW_850_spd_021.txt.gz
Wind_Speed
22 22 24 25 26 27 26 25 24 25 25 24 24 25 25 27 26 24 27 23 19 16 20 17 14 20 15 14 13 7 2 6 7 6 8 9 4 22 14 13 13 12 20 20 12
22 24 24 25 25 26 27 27 25 27 27 27 25 25 25 27 29 32 29 24 23 24 24 22 17 19 16 10 11 9 5 9 9 7 8 19 8 24 14 24 21 14 15 20 17
21 21 22 24 26 27 27 27 28 27 26 28 27 27 24 23 27 36 27 25 25 26 30 22 20 17 18 12 10 10 13 21 18 25 17 16 27 26 12 12 27 26 19 18 24
20 22 23 24 24 24 26 28 29 28 29 26 27 28 23 18 9 3 16 15 17 20 26 27 17 13 7 8 23 5 15 27 33 35 21 15 28 22 29 29 39 40 22 18 30
19 19 18 18 21 24 24 24 24 25 26 26 24 25 23 17 28 7 20 17 7 6 22 28 23 21 8 6 5 6 14 26 27 29 29 29 24 23 32 39 42 35 21 21 32
21 21 22 22 21 20 20 22 25 25 23 23 19 18 20 15 35 32 26 27 14 10 12 26 17 22 4 11 6 12 13 20 19 27 28 24 21 21 28 34 36 27 23 24 33
22 23 23 22 23 23 24 23 22 23 25 25 18 18 25 47 23 22 34 45 36 30 25 19 29 11 9 6 21 15 14 17 14 18 21 26 16 21 32 32 35 32 25 28 34
22 24 24 24 24 25 24 24 24 26 23 20 18 16 23 33 26 44 38 25 32 34 36 32 23 27 15 8 7 4 3 7 6 15 19 9 26 19 36 31 33 32 33 30 37
23 23 25 26 26 25 26 28 27 28 27 21 15 14 18 16 33 42 41 40 33 26 24 14 23 16 4 7 4 2 14 15 21 11 6 7 15 10 27 24 26 35 40 31 38
26 25 24 24 26 26 27 28 25 14 11 9 12 6 22 19 16 23 30 38 29 18 24 19 13 6 5 5 13 10 8 6 17 1 8 13 13 17 29 21 26 31 36 31 40
24 26 27 27 24 24 27 28 9 1 7 11 9 14 6 16 16 6 10 20 25 17 12 16 8 19 18 21 17 8 8 9 8 4 7 8 9 15 18 15 21 30 32 31 37
25 24 24 26 27 23 21 12 8 12 14 23 30 36 43 33 12 11 15 13 14 18 10 7 30 19 16 16 16 9 9 17 18 8 7 9 14 15 12 13 19 26 32 26 22
25 25 25 24 25 24 13 11 11 22 7 16 29 23 37 34 19 19 19 14 7 15 26 28 20 16 20 16 18 18 17 15 19 2 6 8 14 12 15 8 21 21 19 18 23
25 23 23 25 19 11 12 2 15 8 5 8 6 8 14 23 16 42 18 13 8 19 19 18 21 22 17 24 17 19 16 21 18 5 6 4 5 5 8 10 7 18 14 18 20
23 23 22 19 23 22 11 15 10 6 5 2 3 4 7 18 11 27 34 25 10 10 11 12 18 24 21 21 22 18 11 9 10 6 4 9 3 7 4 8 11 11 14 13 14
24 25 23 22 21 17 11 12 3 2 8 6 5 11 3 14 23 3 21 28 16 4 9 10 15 25 25 14 19 7 4 2 4 4 12 19 7 5 7 8 7 4 5 10 20
25 25 22 20 20 16 14 7 2 5 4 1 10 16 10 9 8 10 11 17 18 12 16 6 12 3 7 15 6 7 7 2 3 5 7 7 6 15 7 9 9 9 10 17 22
26 23 21 16 14 9 2 1 6 5 11 16 15 15 6 20 8 12 10 14 23 15 10 14 11 22 12 9 12 14 14 6 6 4 4 7 7 7 8 11 19 24 14 24 26
25 23 10 9 1 8 4 6 4 3 11 11 14 7 7 14 8 12 7 7 12 20 6 12 14 2 16 6 14 9 16 12 2 2 2 4 7 9 2 5 6 10 21 26 29
25 18 7 9 7 10 1 6 4 5 10 11 6 7 12 15 9 15 5 15 10 4 3 3 5 8 19 19 18 10 10 8 5 5 4 4 4 6 4 5 3 7 12 23 27
19 9 6 4 8 4 2 4 5 10 13 5 6 8 12 13 6 7 5 8 17 18 10 4 1 3 6 16 21 8 8 5 7 6 5 2 6 7 9 9 11 9 20 29 32
8 3 8 4 2 1 1 3 9 9 8 5 5 11 12 9 6 7 7 9 15 15 9 5 5 5 13 2 20 13 12 10 9 6 6 3 7 5 9 10 13 13 26 30 31
12 5 9 8 2 1 3 4 6 5 5 3 4 3 9 8 6 2 8 11 10 14 12 8 5 5 6 2 4 23 19 17 4 3 7 9 8 3 4 6 12 17 27 30 29
6 4 3 4 6 3 3 4 4 9 8 7 7 4 8 11 6 8 13 10 20 17 15 9 4 10 12 3 5 6 21 11 16 12 10 9 3 3 5 9 6 13 24 31 32
4 2 5 4 3 4 3 4 7 7 5 7 3 2 8 8 11 10 13 12 13 16 2 3 4 6 16 21 10 3 11 21 19 14 15 12 9 9 10 10 15 27 26 28 31
6 3 6 7 10 5 3 2 4 8 3 6 4 9 6 5 8 10 12 11 5 6 6 4 4 7 7 14 21 16 4 22 21 16 11 8 8 8 9 11 12 24 28 29 34
7 6 5 5 5 3 3 6 8 12 8 9 11 6 6 8 10 14 15 12 8 4 5 6 3 10 6 8 11 15 27 9 15 17 18 10 9 8 5 13 16 23 30 35 38

GFSSW_850_spd_024.txt.gz
Wind_Speed
20 22 24 26 27 28 29 28 25 25 25 26 26 25 25 28 28 26 29 26 18 10 14 17 12 17 17 13 13 6 1 5 7 6 8 5 2 3 7 12 15 20 22 26 26
19 21 22 23 24 24 26 28 29 27 26 25 26 27 27 28 31 35 31 28 22 21 23 18 15 17 12 11 12 8 5 10 8 8 7 5 3 16 7 21 26 21 27 24 31
18 17 18 20 22 24 25 25 27 29 28 27 27 26 26 25 28 36 31 22 27 25 26 24 16 22 17 9 13 11 14 15 10 23 10 9 19 10 9 11 27 23 40 40 39
19 19 18 18 19 20 21 23 24 25 26 27 26 27 26 18 8 0 12 18 22 25 26 26 20 18 9 9 22 3 16 30 19 19 9 11 17 21 23 30 34 37 39 37 34
20 20 20 20 20 20 21 20 20 21 21 22 23 23 24 15 25 6 14 10 2 7 21 26 30 21 7 7 13 8 12 17 24 25 28 23 21 21 27 47 37 35 35 40 30
21 21 21 22 22 22 21 21 20 21 22 21 20 17 18 18 31 30 37 27 16 4 9 28 20 28 10 8 6 8 14 16 15 24 27 21 23 11 28 41 34 40 39 38 32
22 23 23 24 23 23 24 23 22 22 22 22 19 15 24 45 24 20 21 39 34 30 24 16 21 18 9 2 10 7 4 8 13 17 9 24 7 14 42 31 33 35 37 37 36
22 22 24 25 25 25 25 25 25 26 27 23 19 13 19 22 29 33 35 27 29 31 29 25 16 22 8 5 1 1 3 3 4 5 8 10 9 19 30 29 33 30 30 33 39
24 25 25 24 25 26 26 26 27 27 22 19 12 10 18 16 27 32 34 41 36 28 22 14 17 19 5 6 4 1 9 9 6 12 6 7 13 17 22 20 28 35 38 36 38
23 24 26 27 25 25 27 26 17 11 8 2 6 5 17 11 10 14 12 21 32 12 18 18 11 6 6 6 15 6 6 6 9 3 4 8 11 19 33 19 27 27 32 38 40
24 25 24 24 26 27 25 25 5 2 9 8 8 19 24 9 13 10 8 12 22 17 8 14 8 20 28 20 7 10 14 10 8 3 6 7 8 18 22 15 20 29 33 38 31
24 25 25 24 24 25 20 7 4 7 12 18 29 35 38 39 18 19 13 11 12 15 11 6 28 20 14 16 19 12 15 14 16 6 5 11 12 16 17 15 22 28 35 33 28
23 23 23 25 25 18 10 5 5 18 6 16 27 18 28 29 24 37 19 12 7 12 24 27 27 15 17 19 17 19 21 19 18 4 4 7 11 15 14 10 18 25 21 20 20
24 24 23 26 17 14 16 5 13 13 4 7 6 8 8 11 10 44 27 13 7 19 16 19 25 21 16 23 18 24 16 16 14 1 4 4 6 13 15 13 8 21 20 19 17
26 24 22 20 23 15 10 11 7 1 4 2 3 2 14 12 7 15 44 28 10 10 10 13 19 30 22 23 22 13 13 13 9 5 3 2 5 6 4 11 12 10 25 18 14
25 24 24 22 16 11 6 6 2 1 8 3 5 12 2 8 14 8 22 28 12 8 12 9 10 19 23 14 18 8 6 5 3 2 6 9 7 7 6 15 7 7 10 10 9
27 24 22 17 14 9 9 3 2 5 6 3 7 15 12 19 3 3 4 18 11 10 8 5 9 2 10 7 6 9 8 1 2 2 5 5 8 15 9 10 11 11 12 6 14
29 25 17 6 7 5 2 1 6 3 5 10 8 6 13 15 14 14 6 5 18 4 7 7 5 13 10 9 11 22 13 7 8 4 4 10 8 6 20 22 24 24 17 13 19
31 19 11 11 7 7 5 4 3 4 4 9 9 6 4 11 10 12 6 6 5 15 5 9 7 5 17 8 18 7 15 9 4 2 2 5 6 6 9 8 8 8 13 20 23
25 8 15 12 1 6 1 3 4 4 7 6 2 4 5 11 7 13 9 13 10 10 7 5 2 8 14 8 18 14 11 6 3 6 4 5 4 5 6 7 4 5 10 20 24
12 4 8 5 3 2 0 4 4 10 10 3 2 5 7 11 6 4 6 14 16 21 8 5 1 2 10 17 13 4 10 3 6 5 5 1 6 7 7 8 8 8 16 24 28
10 3 20 8 1 1 1 3 6 8 8 4 3 7 8 9 5 2 5 8 19 16 9 3 3 3 15 6 19 14 9 9 8 10 2 3 5 4 8 6 4 9 22 24 26
7 5 8 11 2 2 4 4 4 3 3 3 4 3 3 5 5 6 2 7 12 16 12 8 4 2 3 5 3 23 14 8 6 4 13 4 5 2 4 2 5 11 22 25 25
6 4 6 5 5 3 5 5 4 7 6 5 4 5 3 6 4 5 5 3 5 10 17 10 3 3 6 2 4 14 15 15 6 4 7 20 4 7 6 6 6 14 20 24 27
6 2 3 4 3 9 4 4 6 6 4 7 4 2 4 3 7 2 6 4 5 5 5 6 4 3 10 11 8 5 19 18 24 19 7 6 7 7 9 10 11 20 21 23 26
6 4 5 6 8 6 3 2 3 6 5 5 3 7 6 4 6 8 8 3 3 4 2 5 4 8 5 12 8 10 8 20 22 17 15 6 8 8 5 6 10 23 26 27 30
7 6 4 5 6 3 3 4 6 13 10 10 7 11 12 10 7 16 17 14 8 3 5 3 3 5 5 10 8 8 20 9 13 18 13 11 16 5 4 7 10 22 31 33 34

GFSSW_850_spd_027.txt.gz
Wind_Speed
17 18 18 19 21 23 24 24 24 25 25 27 29 28 27 27 26 26 28 24 18 10 14 11 15 18 17 14 10 7 6 11 8 7 7 2 4 3 2 11 9 11 13 14 20
14 15 16 17 18 19 22 24 25 25 26 26 27 28 28 27 28 32 30 28 24 22 19 19 21 17 12 11 11 11 11 14 11 11 9 7 10 11 7 16 28 19 20 17 22
14 14 15 16 17 18 17 18 22 24 25 26 27 27 26 23 25 17 24 26 29 30 29 23 19 18 13 9 14 12 19 21 20 21 7 16 18 15 15 18 29 20 26 31 25
17 17 18 18 17 17 19 19 17 18 21 23 24 25 25 16 9 6 10 17 22 33 34 24 19 17 12 16 23 13 21 30 27 21 14 18 16 21 20 35 36 30 26 29 33
18 18 18 18 18 19 19 19 20 20 19 18 20 20 20 13 19 10 8 9 2 6 25 26 27 26 17 17 22 15 21 22 26 23 23 25 23 21 30 42 36 28 28 31 33
20 21 21 21 21 21 20 19 21 21 21 20 18 16 15 14 22 29 36 22 16 11 9 20 13 22 17 15 21 11 28 28 22 20 26 22 28 13 27 40 30 32 35 34 31
21 21 22 23 23 23 23 22 23 23 21 22 20 16 19 35 19 18 17 32 32 24 20 14 23 10 7 6 20 12 15 13 14 21 14 19 20 17 33 29 25 31 34 33 31
20 21 22 23 24 25 24 24 24 24 23 22 18 14 15 17 21 27 29 28 22 29 26 21 15 18 7 1 2 9 6 14 12 18 14 11 20 14 28 20 22 24 25 28 33
20 22 23 24 24 23 24 25 25 19 17 16 11 9 15 12 19 16 23 31 30 31 21 15 14 15 9 13 9 8 12 15 11 8 6 13 18 15 15 13 23 29 29 28 29
22 23 23 23 22 25 24 23 12 8 8 4 4 5 12 7 14 14 16 10 21 13 16 17 12 11 15 14 22 18 12 10 13 9 11 16 22 15 25 18 27 29 29 28 31
23 23 24 24 24 25 24 13 4 3 4 8 10 14 28 26 21 15 7 10 16 23 17 25 12 26 30 29 15 17 21 21 14 9 7 13 18 15 24 25 25 27 30 31 34
21 23 24 24 23 24 10 4 3 5 13 22 29 31 36 30 14 22 13 10 14 19 21 11 28 32 26 19 23 24 22 23 14 12 9 16 22 18 18 23 21 24 28 26 25
23 24 24 23 24 10 16 3 1 11 6 18 17 14 16 11 19 31 17 11 11 21 30 26 39 23 22 26 25 28 29 23 20 5 9 9 18 20 23 16 21 27 25 25 21
23 23 23 23 14 14 7 5 6 11 4 6 3 4 3 6 7 24 26 16 12 22 24 22 27 21 23 28 23 27 23 23 19 9 13 2 19 16 21 21 18 24 20 20 15
26 26 23 17 19 10 6 5 8 2 5 2 4 4 7 4 18 3 17 27 21 12 17 19 18 23 26 28 27 21 14 19 16 7 12 19 13 16 7 17 22 20 19 10 6
30 28 25 19 11 9 3 7 1 3 7 2 3 11 9 9 22 10 4 25 23 19 20 19 13 25 27 16 22 15 11 11 9 11 17 19 14 21 14 21 17 14 15 5 4
32 31 20 12 6 5 5 1 3 5 6 1 5 11 8 13 10 17 12 13 15 18 18 17 17 5 14 23 21 20 15 7 8 9 13 11 13 19 10 18 17 16 10 4 2
35 18 8 8 11 4 2 2 6 1 6 11 8 11 5 9 9 20 18 7 22 12 10 15 11 21 17 16 18 28 23 11 11 9 9 15 10 9 19 27 26 23 10 6 8
29 4 10 11 6 2 2 3 3 2 5 10 13 7 4 7 7 7 12 11 3 21 8 12 15 14 19 13 24 24 18 18 14 1 3 5 6 12 16 12 12 18 13 11 14
25 3 13 10 3 5 1 4 4 6 10 6 6 4 4 11 8 4 5 6 10 13 12 7 7 13 16 21 25 19 23 12 10 13 8 5 5 10 9 14 10 9 12 13 16
15 3 15 8 2 1 2 3 5 11 10 4 4 6 8 12 8 5 6 7 6 13 14 11 7 12 18 19 23 11 22 7 10 6 6 3 5 8 16 15 14 11 14 19 21
9 2 11 11 2 2 2 3 7 7 5 5 6 9 9 6 5 4 7 6 4 9 9 6 6 5 24 11 19 22 19 21 11 8 8 2 5 1 9 1 3 9 13 19 21
12 5 8 10 4 4 7 6 5 4 8 5 4 3 3 5 5 6 3 2 7 3 6 7 6 10 9 6 13 27 20 22 6 4 14 10 2 1 2 2 4 8 15 18 21
7 4 4 5 3 8 9 5 7 11 6 9 9 9 6 5 6 6 5 4 6 4 1 8 4 9 10 8 2 22 24 21 19 12 10 16 11 15 8 6 2 7 17 18 21
6 1 3 4 3 9 8 5 9 9 7 7 2 5 10 5 11 1 6 10 4 6 2 3 3 4 14 12 7 3 21 24 24 20 15 11 22 22 14 10 0 7 17 20 22
6 4 3 7 8 10 3 2 8 9 6 8 6 13 13 8 12 16 14 4 2 2 1 1 3 8 8 7 8 8 6 19 23 23 19 11 17 18 12 3 5 12 19 23 24
7 7 7 7 3 4 3 4 9 16 10 8 13 16 15 11 7 12 17 17 15 11 4 2 2 4 13 4 5 9 14 11 14 21 20 18 16 6 9 9 9 16 22 27 26

GFSSW_850_spd_030.txt.gz
Wind_Speed
12 13 13 13 15 18 20 22 22 23 23 25 27 28 28 27 28 26 27 23 12 13 9 10 10 15 12 18 17 15 10 14 19 15 12 6 10 5 5 11 14 12 15 15 14
14 15 16 16 15 14 16 17 18 20 22 23 24 26 28 26 27 33 32 27 24 22 18 16 15 16 21 19 17 18 15 22 21 14 16 17 12 13 11 15 21 21 18 15 14
14 15 16 17 17 17 15 15 18 19 19 19 19 21 22 19 18 20 25 27 27 28 29 21 17 17 23 27 27 25 25 21 26 23 23 22 23 21 20 15 25 23 21 23 23
14 15 15 16 18 18 19 19 16 17 19 19 18 18 17 9 9 6 16 19 24 30 31 26 23 25 24 26 32 30 30 28 30 33 24 20 29 25 24 24 30 26 25 27 31
16 17 17 17 18 19 19 20 21 21 17 16 17 17 12 12 22 12 11 10 6 7 23 33 31 30 28 27 31 31 25 32 28 32 30 26 27 31 30 28 31 26 25 28 30
17 17 18 18 19 19 19 19 19 20 20 20 18 17 11 20 13 23 26 17 13 8 11 26 21 31 29 33 31 30 32 35 34 32 28 25 30 31 29 31 30 28 27 27 28
17 18 19 20 21 21 20 20 20 19 20 21 21 15 18 30 20 17 20 30 26 14 15 16 29 15 24 23 31 32 25 24 24 27 26 26 26 26 27 30 28 24 25 27 28
17 18 20 21 22 21 20 21 21 20 19 18 17 10 15 16 18 22 22 30 22 25 19 15 17 27 22 18 16 21 25 24 25 23 27 20 28 23 23 25 23 21 25 28 30
20 19 20 20 20 21 22 21 19 16 14 13 7 11 15 11 11 14 15 21 18 19 18 17 16 23 19 19 18 25 26 32 25 22 18 21 32 23 22 22 18 23 28 31 31
20 20 21 23 23 24 24 19 13 9 5 2 6 7 15 13 5 7 10 10 14 17 17 22 18 15 19 20 29 25 26 27 28 21 15 24 30 21 25 24 27 25 31 28 30
22 23 24 25 24 24 21 14 7 7 6 14 12 18 22 21 16 14 7 6 11 21 23 28 20 28 42 35 27 26 30 30 23 22 21 27 29 24 22 23 29 28 30 32 30
23 24 24 25 25 23 10 9 5 6 14 22 31 32 34 30 22 23 13 11 14 22 26 20 30 47 29 29 29 29 29 30 24 23 23 24 29 26 24 24 31 29 32 28 27
24 25 26 25 24 11 12 6 3 10 9 20 16 18 16 12 19 27 21 25 19 20 28 34 43 26 32 30 30 31 30 25 27 20 22 24 29 31 27 31 30 24 24 31 28
26 27 27 26 10 10 9 3 6 9 6 6 5 4 4 6 7 17 14 28 20 24 24 31 35 29 32 35 33 31 25 25 25 21 23 22 23 28 22 22 22 29 28 27 21
28 28 29 20 15 8 7 5 6 4 6 6 6 2 1 6 10 6 9 22 28 23 16 31 29 33 31 43 30 33 22 23 24 23 25 28 19 23 19 21 25 20 24 24 13
28 30 22 8 6 7 8 8 3 5 9 1 4 2 5 2 4 10 11 13 20 27 24 28 21 25 42 20 29 22 17 18 18 17 21 24 21 24 24 27 25 22 18 19 10
29 20 11 8 5 9 3 4 5 8 7 0 6 7 13 2 9 5 9 11 13 21 27 22 29 19 21 28 25 27 21 11 13 14 17 19 19 21 24 17 25 18 11 11 11
28 8 9 6 9 5 1 4 8 4 5 15 11 17 17 4 3 8 14 12 15 24 20 21 20 31 21 30 22 30 27 14 19 15 15 20 11 14 10 22 32 28 14 10 13
22 3 9 11 7 3 4 5 7 10 8 10 15 16 15 4 6 7 3 6 9 20 19 18 28 30 22 27 28 29 24 24 11 10 7 13 14 16 17 21 16 17 20 15 12
13 2 11 9 2 1 3 5 5 9 13 13 16 11 14 10 9 9 2 3 12 13 13 6 12 25 35 24 27 28 24 21 15 18 16 12 10 8 8 11 13 13 15 17 16
8 3 9 8 3 2 3 5 9 12 13 7 11 12 15 15 15 12 2 4 5 13 12 13 8 16 28 24 27 18 23 19 18 13 14 7 8 9 17 10 12 12 16 18 21
8 2 6 5 3 1 5 9 11 11 11 9 8 10 12 11 12 5 1 3 8 8 8 4 6 12 26 24 24 27 21 26 13 20 11 6 4 1 7 2 10 7 12 19 23
10 4 6 7 3 4 6 9 5 12 11 7 10 6 11 12 6 4 2 7 11 5 5 4 9 10 15 21 21 27 23 26 17 15 19 12 3 6 5 6 4 8 16 22 25
6 4 3 3 3 8 10 7 9 10 8 14 10 12 11 10 8 7 9 8 7 7 7 7 8 16 7 21 15 25 25 26 23 11 12 15 13 8 8 8 7 8 17 22 26
5 2 4 4 4 8 13 9 13 8 8 12 4 6 11 7 16 8 8 11 5 6 6 3 12 18 13 6 6 12 24 24 26 21 16 12 18 13 11 8 7 9 20 23 25
5 5 6 16 10 9 6 7 10 11 7 10 10 15 14 14 15 18 15 9 2 4 6 4 5 13 17 13 7 7 9 25 21 23 19 14 15 15 15 13 4 6 21 23 24
4 5 6 9 6 7 5 7 13 15 11 9 14 16 16 12 15 20 19 18 15 13 11 5 4 9 18 16 6 11 13 17 21 21 20 20 19 13 5 8 8 3 18 22 23

GFSSW_850_spd_033.txt.gz
Wind_Speed
14 14 13 14 15 15 16 17 18 17 17 20 25 26 27 27 26 21 23 18 13 14 18 10 15 19 14 22 25 23 16 17 21 21 18 18 9 15 8 13 16 15 19 18 19
15 16 16 16 16 15 17 17 18 19 19 18 19 22 25 24 26 27 28 27 22 19 16 16 20 18 22 21 27 26 17 25 21 19 18 25 14 17 15 11 18 20 22 18 15
16 17 18 19 19 18 18 17 18 19 19 19 19 17 18 19 20 24 24 28 29 28 27 20 23 22 28 30 30 30 24 24 27 24 25 29 31 27 20 24 21 22 26 20 22
16 17 18 19 20 21 21 20 19 19 19 20 20 18 14 7 10 2 10 18 20 27 30 27 29 32 28 27 32 29 35 33 33 36 32 28 34 26 30 29 27 26 27 23 25
16 16 17 18 19 20 22 22 22 21 19 19 20 19 16 13 21 20 16 7 9 9 23 30 35 36 32 31 33 31 30 37 37 40 39 36 34 34 33 35 33 27 29 27 27
17 18 18 19 19 19 19 20 20 20 20 19 17 17 14 24 13 16 18 16 11 11 17 26 36 38 39 37 34 38 38 39 41 41 40 32 35 35 35 37 38 28 31 31 29
17 18 19 20 21 21 21 20 19 19 20 21 20 17 20 29 17 15 15 19 21 19 20 21 29 36 36 34 41 43 34 34 36 38 33 35 36 34 38 39 37 33 34 32 27
17 17 18 19 20 21 21 22 22 20 19 18 18 12 16 14 19 23 22 25 24 26 24 19 19 31 37 31 34 33 33 30 32 32 35 27 33 27 37 36 35 29 31 24 28
21 22 23 24 26 26 22 20 17 17 17 13 10 13 23 9 14 15 23 23 22 25 25 27 20 25 26 23 21 26 28 37 31 30 27 29 39 28 36 34 37 36 24 25 31
21 23 24 26 27 27 27 20 18 12 5 5 10 8 20 14 6 4 4 10 18 21 26 24 23 18 20 22 27 32 32 31 32 29 28 32 35 28 29 30 37 34 28 31 36
23 24 25 27 27 26 26 20 5 8 11 15 15 17 24 10 14 19 11 9 14 20 25 29 19 27 42 38 35 33 25 31 32 29 30 32 34 24 25 34 36 34 28 32 34
25 26 27 28 27 23 11 13 10 8 14 27 32 36 34 30 30 26 20 18 17 20 22 24 30 45 28 32 33 33 32 32 29 28 27 27 29 29 24 26 36 37 32 31 35
27 28 28 30 23 9 12 12 8 11 12 29 31 28 27 21 29 28 27 28 23 22 26 30 42 26 34 33 30 33 32 30 31 25 25 27 29 31 30 32 35 40 43 39 32
28 27 28 27 11 12 10 10 9 11 7 16 11 7 9 8 12 17 24 32 27 30 23 28 34 33 33 36 34 33 30 28 26 22 21 22 22 31 24 25 24 35 34 26 26
28 28 22 14 12 7 9 10 9 8 6 6 8 6 7 9 4 3 15 19 24 26 23 32 30 36 37 42 32 38 24 27 25 20 24 29 18 24 21 24 24 23 27 28 28
28 22 14 11 8 9 11 8 6 6 10 1 3 7 14 5 3 3 5 17 16 22 29 31 33 29 39 35 30 29 28 27 21 20 20 27 21 26 23 26 20 23 27 24 25
29 12 11 8 11 13 7 5 5 7 4 6 11 4 17 12 12 7 11 10 13 15 23 31 30 29 32 30 36 29 26 18 19 20 26 19 21 24 23 22 22 23 28 18 15
24 10 11 9 11 10 4 5 6 13 12 11 12 16 16 16 10 8 13 13 17 16 21 24 27 33 29 30 36 34 31 17 32 14 20 24 26 22 22 24 27 27 12 12 13
13 8 3 15 6 3 9 5 10 14 17 15 16 18 19 16 9 11 14 7 8 10 8 18 30 29 33 25 27 39 27 35 24 23 20 17 17 18 18 17 13 15 22 19 17
10 6 6 8 4 2 3 6 9 9 13 15 16 11 18 12 4 16 9 7 8 7 14 18 13 33 28 31 30 33 28 23 21 28 24 16 14 8 6 10 15 15 16 22 19
8 4 4 4 5 3 3 6 13 15 13 10 18 16 17 16 17 16 13 5 3 13 15 18 7 19 34 33 30 25 24 31 21 20 17 16 10 9 6 8 12 15 19 26 24
7 4 4 4 5 4 7 9 12 12 16 9 9 14 12 12 14 16 4 5 7 11 13 13 5 16 19 23 31 31 29 30 17 26 18 9 7 6 3 13 10 13 21 24 24
11 6 3 5 4 8 17 17 15 12 13 10 11 12 15 15 7 6 5 2 4 7 5 7 9 12 6 18 29 29 33 26 27 15 22 13 10 6 3 5 10 8 21 24 25
7 5 7 5 4 6 14 16 13 17 10 9 17 14 12 13 12 8 8 1 3 14 13 13 14 17 7 11 22 32 33 28 27 16 17 21 12 9 11 12 9 10 15 23 27
6 4 4 4 10 11 14 16 17 12 13 20 10 8 15 15 16 11 4 16 5 9 5 5 18 25 10 19 27 30 26 29 27 24 18 20 15 9 10 11 10 14 19 23 26
6 7 9 17 12 10 12 13 13 15 17 16 16 19 18 17 15 16 18 11 7 4 5 6 12 19 14 17 30 11 27 28 25 29 19 12 16 12 5 11 8 10 19 22 25
5 7 8 12 6 7 9 13 18 17 12 14 18 18 17 16 22 26 24 24 18 14 13 7 8 9 7 15 23 13 18 20 20 27 19 15 7 8 8 2 4 9 19 23 23

GFSSW_850_spd_036.txt.gz
Wind_Speed
16 16 16 16 18 18 18 18 18 17 16 16 20 22 25 27 25 22 28 23 10 19 16 10 11 16 18 21 22 23 15 16 22 23 21 22 17 18 24 3 17 13 14 15 16
18 18 18 18 17 18 18 19 20 20 19 18 16 16 19 24 26 30 32 26 24 20 19 18 19 15 23 21 27 21 16 26 21 22 21 23 19 25 17 9 15 21 23 19 18
17 18 19 20 20 20 20 20 20 20 20 20 19 16 14 13 20 21 21 25 27 27 27 18 19 20 25 28 29 27 23 24 26 29 31 26 26 30 26 18 23 25 25 23 19
17 17 18 19 20 21 21 22 21 19 20 20 20 18 13 6 8 2 6 7 22 27 23 22 23 27 26 25 31 26 35 34 35 35 35 27 33 33 32 31 25 32 27 23 19
18 18 19 19 20 20 21 21 21 21 20 20 20 19 17 13 19 16 14 16 7 19 27 29 30 31 27 27 31 29 29 38 39 37 37 38 33 31 36 37 37 35 31 33 26
21 22 22 22 23 23 22 21 21 21 21 21 20 18 15 25 12 16 18 15 13 14 21 24 31 32 30 32 30 34 35 37 40 38 38 30 32 36 36 39 36 36 33 34 36
19 20 21 22 23 24 24 24 23 23 22 22 20 20 21 31 17 15 13 16 19 19 21 22 25 30 34 30 39 40 31 30 31 36 32 36 32 29 37 38 35 40 37 36 35
21 22 23 23 23 23 22 21 20 20 23 20 19 13 19 15 13 20 22 25 27 25 25 22 21 26 30 38 38 32 32 30 28 30 38 32 32 25 37 33 33 33 34 34 30
24 25 26 27 27 28 28 25 16 14 17 17 13 10 17 9 13 15 15 25 23 24 25 25 25 25 21 21 21 29 24 33 31 29 29 29 33 26 37 36 34 31 31 30 34
25 26 27 27 28 30 29 23 19 18 9 8 11 13 21 14 10 5 3 6 18 21 23 27 23 19 18 19 24 22 30 30 28 26 28 31 29 27 32 35 32 32 25 25 37
28 29 30 30 28 27 21 19 18 7 6 19 15 16 25 12 8 11 11 12 11 17 20 26 16 24 40 30 29 27 31 33 29 27 28 26 25 28 24 26 26 28 23 29 37
29 30 30 29 26 12 10 12 15 13 21 23 33 40 38 34 35 33 22 21 17 17 18 19 28 38 22 32 31 34 32 30 29 28 24 23 26 26 22 22 26 26 26 26 32
30 31 31 27 16 8 15 15 16 15 20 39 48 41 36 31 33 30 25 28 22 22 20 23 37 22 29 30 30 31 31 28 31 25 27 24 26 25 24 27 27 28 32 25 25
28 29 26 24 10 18 12 13 16 16 9 11 11 8 15 14 20 23 25 29 25 26 22 24 26 32 30 33 30 29 28 29 28 23 20 19 19 25 20 21 20 25 25 26 26
28 29 18 19 15 15 18 19 15 8 6 8 3 5 6 13 4 7 11 19 23 22 20 34 22 27 31 37 29 34 21 27 28 25 21 23 14 29 17 17 16 13 20 25 27
29 22 15 13 13 15 19 16 11 5 5 12 16 12 12 13 16 9 7 8 13 19 20 29 33 28 29 26 32 26 26 29 26 19 19 26 19 29 19 19 17 16 24 26 21
26 14 12 9 15 16 15 10 4 4 10 7 17 12 14 9 16 8 12 12 9 14 19 24 28 31 29 29 29 31 23 17 19 17 21 17 19 23 21 19 18 18 19 22 18
19 11 12 8 16 12 10 2 3 19 21 21 16 19 16 13 14 15 11 13 13 14 12 13 19 28 24 33 27 29 25 16 25 17 19 21 26 20 21 21 25 20 14 18 24
17 11 9 5 8 5 10 3 9 15 17 18 19 15 13 16 7 15 10 17 6 6 3 7 15 27 30 29 28 30 28 31 22 21 19 16 18 30 27 20 14 7 15 21 22
15 10 10 5 6 5 3 9 13 11 14 17 9 4 17 17 7 11 8 3 10 3 7 5 14 23 27 28 33 31 21 25 19 25 24 20 22 14 11 15 12 13 9 17 25
12 7 2 3 7 8 5 7 21 17 15 8 20 15 18 18 20 10 8 8 5 5 8 9 9 18 23 26 28 24 25 23 21 18 16 15 14 12 2 9 6 9 17 18 26
8 5 3 6 5 5 8 20 25 26 16 15 11 8 16 14 13 17 15 9 5 8 11 15 7 16 23 20 21 29 25 25 19 24 17 13 15 5 2 5 5 11 21 29 27
9 15 3 3 4 9 18 20 26 15 19 17 10 12 10 11 10 4 11 6 3 3 2 6 6 11 19 17 20 20 28 24 21 11 19 17 16 7 6 8 11 11 21 30 29
8 4 10 11 4 12 15 18 19 27 13 23 18 14 9 19 13 7 9 8 8 7 3 3 7 15 11 7 15 8 24 31 26 17 19 19 9 6 7 8 5 17 29 28 29
6 5 12 7 12 13 16 16 19 13 13 18 14 19 18 18 18 14 11 18 14 6 2 2 8 18 21 13 15 21 29 29 29 24 22 19 18 13 12 11 13 15 23 26 28
11 13 12 21 14 12 15 13 18 19 20 16 13 20 20 17 15 20 19 17 13 2 0 4 4 16 14 15 10 23 31 26 29 26 27 21 14 11 12 17 16 15 19 24 27
10 9 8 12 8 7 10 14 20 19 10 23 19 18 19 19 23 28 31 30 22 17 16 15 5 8 8 6 7 18 23 22 22 25 26 17 6 18 8 8 11 17 21 22 26

GFSSW_850_spd_042.txt.gz
Wind_Speed
15 15 16 15 16 18 18 18 17 17 16 17 18 18 18 22 25 25 30 28 24 19 19 10 14 12 17 13 15 14 2 5 6 5 8 10 15 29 21 16 7 4 3 9 8
16 16 17 17 17 17 18 19 18 18 19 17 17 19 21 21 26 31 28 25 25 21 20 24 17 12 10 13 9 8 7 8 8 7 6 19 12 33 12 19 17 8 12 16 25
17 18 18 18 18 18 17 18 19 19 19 19 19 18 19 21 25 11 8 5 15 25 27 21 26 15 14 20 10 9 11 13 18 20 19 21 21 25 18 13 18 8 21 16 21
16 16 17 18 19 19 19 20 19 19 20 19 20 21 19 15 8 11 6 11 6 14 31 31 19 18 7 14 26 9 18 23 27 28 25 18 27 23 26 24 27 28 27 26 18
19 20 20 20 20 20 20 21 21 21 20 21 21 22 23 11 24 10 13 4 1 9 32 30 26 15 7 6 13 19 10 20 24 27 28 30 25 24 32 39 35 33 33 30 27
19 21 22 22 22 22 22 23 23 23 23 21 20 20 16 11 17 11 24 28 10 9 19 30 11 20 10 6 10 5 11 24 24 26 28 21 25 29 33 37 36 36 37 38 38
21 23 24 25 24 24 23 23 22 21 21 23 18 15 15 28 23 20 23 21 16 16 13 24 25 13 8 4 21 19 12 16 21 14 9 17 21 25 36 32 33 33 27 31 38
22 24 24 26 25 25 24 23 19 16 18 18 17 10 13 26 13 22 18 26 22 18 15 12 14 12 23 13 9 4 5 17 16 16 12 8 32 16 14 19 27 32 38 44 44
26 28 30 33 33 31 23 20 14 16 18 16 15 9 16 8 13 7 9 21 23 18 13 12 9 9 4 4 2 6 17 19 19 7 4 14 37 14 26 29 29 31 39 41 39
29 31 33 33 27 24 17 18 16 8 15 19 7 8 11 6 7 19 8 1 11 13 16 10 7 5 4 6 16 12 20 19 18 6 14 19 32 21 32 35 34 40 43 44 46
30 29 28 26 21 16 19 20 21 6 26 15 26 24 40 40 36 26 6 9 12 11 7 5 5 18 23 16 14 7 17 8 5 11 14 19 23 18 20 18 21 30 32 39 42
26 25 27 21 16 10 15 21 18 20 16 28 31 33 38 41 39 52 21 8 1 3 5 5 19 12 7 6 11 13 15 14 9 9 9 13 22 23 22 19 29 33 33 38 39
25 23 21 18 9 10 13 21 18 18 5 16 22 21 20 19 35 41 27 14 5 5 6 10 5 12 15 12 15 16 18 14 10 10 22 13 12 17 20 17 28 30 35 35 29
25 21 15 18 4 15 19 25 17 10 3 6 10 13 23 20 5 17 23 19 6 10 7 9 10 14 10 21 13 19 9 12 15 11 16 7 17 21 22 25 21 21 30 34 35
25 20 11 10 13 16 22 28 7 1 3 11 6 11 16 11 17 9 14 21 17 11 7 8 5 1 12 15 12 20 11 13 14 10 16 17 7 29 7 18 12 14 23 34 39
25 19 12 6 11 17 20 24 2 5 4 6 8 18 16 24 3 5 12 10 13 17 16 13 15 9 9 10 9 5 9 12 16 3 11 9 10 28 16 22 18 7 29 32 32
26 18 11 9 10 15 19 13 4 4 11 14 23 13 10 18 10 11 4 3 1 2 1 8 13 14 15 12 10 5 2 2 3 7 15 11 9 23 7 5 10 14 25 35 35
29 18 9 9 8 12 15 4 6 8 12 20 13 12 7 13 10 13 8 6 3 5 2 2 3 5 2 1 5 6 9 5 7 4 8 7 12 16 16 26 31 36 35 37 37
29 10 6 8 9 9 5 5 2 10 13 11 15 4 4 8 3 9 5 3 3 2 4 2 4 3 10 6 4 5 9 7 5 14 1 6 9 18 23 24 21 21 24 32 26
22 8 6 5 7 8 5 3 4 14 11 10 5 3 4 5 6 9 4 3 8 4 1 2 2 6 5 5 6 8 3 4 3 6 8 6 6 10 7 14 10 12 17 17 19
13 6 6 5 7 4 2 4 10 21 16 3 7 6 3 3 4 2 5 6 8 7 7 3 4 3 5 3 7 1 4 5 4 3 8 6 9 8 12 10 12 17 17 27 35
12 3 4 6 5 3 2 9 15 13 13 3 5 2 2 5 4 4 4 6 11 6 5 2 3 4 9 16 13 6 9 5 5 11 5 11 16 9 9 10 8 10 16 32 39
15 5 3 11 4 3 7 8 12 11 10 1 4 1 1 3 4 4 3 1 13 3 3 5 1 4 9 3 3 4 5 1 4 5 19 8 7 8 12 11 21 7 18 26 34
7 3 6 5 19 3 8 5 9 13 10 16 9 4 6 8 4 6 13 4 9 9 14 2 3 5 5 5 6 8 6 5 0 2 12 18 15 24 19 21 21 13 15 31 35
7 2 4 4 6 7 7 7 8 9 4 9 4 11 12 6 11 6 7 12 6 6 3 5 4 8 13 17 17 18 18 13 9 8 3 7 8 18 17 17 18 20 30 27 30
9 7 8 16 13 6 5 3 12 14 7 7 9 16 13 7 12 16 10 6 8 6 6 6 4 6 14 18 18 20 18 14 15 11 11 17 19 17 20 24 9 28 33 33 33
11 5 7 7 4 3 2 12 12 17 10 17 14 15 8 12 20 27 27 25 13 9 7 6 3 2 6 12 6 6 13 16 6 8 3 7 6 14 13 10 11 24 35 36 36

GFSSW_850_spd_045.txt.gz
Wind_Speed
13 12 12 12 13 13 14 13 13 15 15 16 18 19 21 24 27 28 30 27 25 21 23 15 11 14 14 12 11 8 3 5 6 6 5 9 5 1 10 8 21 11 9 7 7
13 14 15 14 14 15 15 16 16 15 16 17 18 20 21 24 27 33 26 26 26 21 23 25 21 12 12 11 11 6 5 10 7 9 3 9 14 14 5 5 17 18 10 7 8
17 17 18 18 18 18 18 18 18 18 18 18 19 20 21 22 26 9 10 13 13 25 28 23 23 16 14 13 13 8 9 18 10 18 11 9 13 12 11 8 13 6 24 26 23
16 18 19 20 20 21 22 23 22 22 21 21 21 21 23 18 7 6 3 9 5 6 28 31 21 17 8 11 16 4 17 21 23 20 10 15 13 14 22 22 34 30 25 30 31
18 19 19 20 21 21 22 24 25 25 25 23 23 23 22 8 22 17 24 25 16 12 10 33 28 18 10 4 10 15 7 17 30 25 21 22 21 17 27 31 32 35 32 32 33
18 18 19 20 21 20 21 20 21 22 24 24 23 21 10 11 19 16 19 20 21 18 10 27 16 23 7 7 9 3 15 21 23 21 15 14 24 24 25 37 30 29 31 34 36
18 17 19 20 21 20 20 17 18 19 20 21 20 18 13 30 25 29 26 27 25 18 15 14 23 19 13 1 14 13 7 10 12 8 8 8 23 24 31 32 29 36 36 35 32
21 22 23 26 24 23 22 20 18 20 21 18 16 12 12 35 20 18 18 19 25 21 18 12 20 21 10 4 5 4 4 14 13 10 7 8 29 11 24 21 32 29 28 30 36
25 25 25 28 26 26 26 25 25 18 8 15 10 10 16 15 15 15 28 22 16 18 15 12 10 8 3 5 3 5 16 17 9 5 8 16 30 14 28 24 27 31 36 40 42
28 27 27 25 21 19 16 18 14 8 12 14 6 7 10 27 41 40 30 23 14 12 14 15 11 5 3 9 17 10 11 11 11 4 11 15 28 12 19 22 27 31 34 40 43
29 27 24 20 14 10 13 19 18 6 25 14 21 16 28 35 29 27 20 18 19 8 9 8 6 16 23 18 2 4 9 3 8 10 14 19 24 20 19 21 23 30 33 39 39
27 27 23 18 10 8 11 14 13 13 12 15 12 14 15 23 20 29 13 3 7 3 4 3 18 12 5 7 7 6 5 3 7 8 4 10 17 10 10 14 24 28 30 33 38
27 24 22 17 7 12 13 15 18 10 4 11 10 13 13 18 11 21 8 7 2 7 4 7 7 11 6 7 7 6 12 7 5 9 17 12 18 12 12 12 25 32 33 35 30
27 23 19 14 7 17 13 18 15 6 2 5 5 7 16 18 7 15 2 10 6 9 6 5 7 6 3 11 7 11 4 5 8 5 10 2 17 18 21 23 20 26 32 27 33
27 22 17 12 13 17 19 20 8 1 3 10 6 14 26 8 18 17 16 14 8 5 5 6 1 4 10 4 6 11 10 9 11 6 4 7 5 23 8 22 17 15 28 36 45
26 20 17 8 12 18 20 22 1 4 3 6 14 14 16 14 11 12 9 6 11 4 6 5 12 4 6 5 5 1 4 7 7 3 6 8 9 24 9 20 19 21 25 34 35
26 20 10 5 11 18 20 12 4 4 8 9 12 16 15 13 9 8 11 8 4 2 2 6 13 9 6 5 4 3 4 1 1 3 10 12 9 22 6 3 5 8 17 28 31
25 12 9 9 10 16 19 5 6 4 4 9 13 15 6 10 6 13 5 2 3 3 2 1 2 7 3 11 6 5 8 4 6 4 7 6 13 16 13 22 31 31 29 26 26
17 11 10 8 10 14 10 5 2 4 11 9 14 4 4 5 4 8 6 5 3 3 3 3 3 2 3 1 7 2 4 7 3 4 2 6 10 18 20 15 14 11 18 26 32
14 5 9 9 9 12 5 4 3 8 12 6 3 5 4 7 7 6 5 4 9 8 5 3 2 3 4 3 6 6 4 3 1 5 5 6 9 12 6 19 20 15 10 28 33
10 2 4 5 7 6 2 4 7 14 15 3 3 4 4 4 4 4 4 2 6 9 6 3 1 4 3 3 3 1 3 4 3 5 4 3 6 7 12 9 5 9 21 31 33
8 2 4 7 4 2 1 7 13 8 16 4 4 4 3 4 4 3 4 3 8 3 5 4 2 3 9 8 7 4 4 3 6 7 10 1 8 8 3 7 7 8 25 25 11
12 5 5 6 2 3 6 5 5 6 9 2 4 4 1 3 4 4 5 3 6 1 0 2 0 3 7 3 3 2 4 6 1 2 11 10 9 5 8 14 16 13 23 9 9
8 4 5 4 4 1 4 4 4 12 13 8 8 3 3 4 6 6 10 7 3 7 9 5 4 6 5 5 4 5 9 6 3 4 12 20 18 18 23 17 15 23 13 9 15
9 3 3 4 4 6 4 3 6 7 4 8 4 3 7 6 11 7 4 7 7 11 1 5 5 5 8 11 15 15 14 19 15 11 5 14 17 6 15 14 16 31 20 17 22
8 6 6 15 12 4 3 3 7 12 5 5 6 14 12 9 12 19 14 8 7 5 5 4 4 4 12 16 17 17 21 19 18 18 13 14 22 11 20 20 19 25 22 23 28
11 6 6 7 4 3 4 6 13 12 8 12 15 14 9 14 17 25 27 27 19 9 6 6 2 2 5 6 10 13 16 20 15 11 9 14 9 11 6 9 11 21 24 27 32

GFSSW_850_spd_048.txt.gz
Wind_Speed
15 15 15 15 15 16 16 16 16 17 17 18 19 20 21 22 22 25 29 26 23 21 21 20 11 14 13 11 13 7 3 5 7 7 4 2 5 5 6 6 8 4 6 10 5
15 15 15 15 15 16 16 17 17 18 18 20 21 23 24 25 26 27 19 21 25 26 25 19 22 15 11 12 10 6 5 10 6 11 5 7 3 4 7 11 5 12 4 3 6
15 16 17 17 17 17 18 18 17 17 18 20 21 23 24 24 25 4 3 2 3 8 23 25 20 22 15 13 13 9 10 13 10 18 13 13 16 5 2 7 10 3 13 22 11
17 18 18 18 19 19 19 20 20 20 20 20 21 22 23 20 6 4 6 8 15 16 12 24 23 11 9 11 16 6 18 22 10 15 9 13 22 5 13 21 26 28 27 27 28
18 19 19 18 19 19 17 18 18 21 23 24 22 20 18 11 19 16 18 25 23 18 13 11 22 18 9 7 10 13 5 16 26 21 21 22 18 19 24 28 34 30 30 29 30
20 20 20 21 21 18 15 14 16 19 21 24 24 20 11 6 12 26 26 20 21 20 13 11 12 21 8 7 18 4 16 23 17 11 12 8 18 14 20 30 29 33 37 35 33
21 21 22 24 23 20 17 16 17 20 21 20 19 13 12 27 24 20 11 15 17 22 26 18 17 13 7 2 24 5 5 3 7 4 7 10 23 21 24 31 32 32 39 37 35
23 23 24 27 25 23 19 18 19 19 12 15 18 12 13 21 17 8 20 29 24 22 22 21 11 23 11 4 1 6 3 13 13 8 7 11 28 18 24 20 29 33 38 35 34
25 24 23 25 26 25 21 21 19 21 19 16 20 10 14 20 22 22 24 23 24 25 15 15 15 14 5 4 2 4 15 14 12 8 11 15 25 7 20 18 24 29 34 36 37
26 25 23 22 23 20 18 20 15 12 14 17 8 7 9 19 21 25 16 12 15 21 14 14 11 6 4 6 16 10 12 8 7 7 10 12 27 15 15 13 20 25 32 36 40
27 25 21 17 18 14 17 21 18 3 15 10 16 18 27 21 26 21 15 7 9 6 4 7 5 16 30 26 8 3 11 2 3 5 8 19 22 16 12 21 23 29 35 41 45
26 25 21 15 14 9 14 8 7 11 13 15 17 20 23 23 17 26 12 4 6 2 6 5 15 10 2 5 5 2 3 1 4 4 2 6 11 9 6 11 21 27 31 33 42
26 24 19 12 7 8 9 9 12 13 4 13 10 14 16 14 14 23 9 5 5 7 5 6 7 8 8 5 8 5 5 3 2 7 6 5 14 10 7 16 26 33 33 35 37
27 23 19 12 4 12 7 14 16 5 2 5 4 5 16 24 6 8 16 7 4 9 5 6 6 4 2 6 6 5 7 5 5 5 6 2 12 13 9 15 13 25 32 34 31
28 23 19 10 6 11 15 16 9 1 4 11 3 12 29 9 20 15 21 7 8 4 5 7 1 4 5 5 7 7 2 4 2 3 3 2 4 6 5 11 17 19 33 36 37
27 20 9 1 6 11 16 19 4 4 5 6 10 14 15 11 15 3 17 6 6 4 2 5 1 2 5 4 7 4 6 2 3 3 4 6 6 18 9 16 13 14 26 31 33
21 10 9 5 8 15 18 2 4 3 5 7 9 12 15 8 9 11 4 7 3 0 2 1 6 4 4 2 1 2 5 2 2 3 11 13 9 21 5 3 3 6 9 13 16
13 7 8 9 11 15 15 4 4 2 2 6 8 18 4 7 9 10 9 9 10 8 4 5 3 5 4 8 6 6 7 5 6 4 4 8 11 9 14 25 33 26 20 18 17
10 4 8 9 10 13 7 5 2 1 5 7 14 4 4 3 3 7 5 5 6 3 3 5 3 5 6 2 8 4 4 5 3 2 1 4 7 11 14 19 11 5 13 21 22
12 3 5 9 10 11 5 1 2 2 6 5 4 3 4 6 6 5 4 3 5 4 2 4 3 4 4 3 4 4 5 3 2 4 4 5 6 8 8 8 14 8 9 27 34
10 1 5 7 11 5 3 4 4 10 9 3 3 4 5 5 3 3 4 3 3 7 5 5 3 6 2 3 3 3 2 2 4 5 4 2 5 7 14 2 5 6 13 29 32
8 2 7 9 4 2 1 2 6 6 6 6 3 5 4 5 4 3 3 2 1 3 5 3 1 3 6 6 3 1 3 1 4 7 7 3 7 2 6 5 5 8 25 33 25
9 5 6 6 2 3 5 4 5 3 5 4 4 4 2 3 5 4 5 6 10 2 2 1 2 2 6 1 3 2 2 4 1 0 7 7 7 3 7 13 12 15 30 32 20
8 4 5 6 3 2 5 4 4 8 6 6 5 6 5 4 6 6 8 8 9 6 17 5 3 5 5 2 2 2 6 7 4 4 7 20 15 19 21 20 15 25 31 29 24
9 2 3 4 3 5 4 4 6 7 3 6 4 2 8 6 12 11 10 4 10 13 5 4 5 6 10 13 11 9 12 12 13 13 9 17 15 7 18 16 16 22 28 26 24
7 6 5 8 13 5 3 3 6 10 5 6 5 14 13 8 12 21 19 14 6 6 4 3 3 2 10 12 11 13 14 15 18 19 21 19 21 10 23 27 18 22 23 25 26
9 5 3 5 5 3 3 4 10 15 10 13 15 16 13 15 17 27 28 29 11 4 2 3 2 1 5 5 7 8 18 17 20 21 17 21 11 8 15 16 15 24 24 29 33